Regional Weather Roundup
Issued by NWS

Home | Current Version | Previous Version | Text Only | Print | Product List | Glossary Off
Versions: 1 2 3 4 5 6 7 8 9 10 11 12 13 14 15 16 17 18 19 20 21 22 23 24 25 26 27 28 29 30 31 32 33 34 35 36 37 38 39 40 41 42 43 44 45 46 47 48 49 50

000
ASUS43 KLSX 062010
RWRMO

WEATHER SUMMARY FOR MISSOURI
NATIONAL WEATHER SERVICE SPRINGFIELD MO
200 PM CST SAT FEB 06 2016

NOTE: "FAIR" INDICATES FEW OR NO CLOUDS BELOW 12,000 FEET WITH NO
       SIGNIFICANT WEATHER AND/OR OBSTRUCTIONS TO VISIBILITY.
       CURRENT SKY AND/OR WEATHER CONDITIONS ARE NOT AVAILABLE FOR
       CHILLICOTHE AND FARMINGTON.

MOZ001>031-035>038-043-044-053-054-062100-
...NORTHERN AND WESTERN MISSOURI...

CITY           SKY/WX    TMP DP  RH WIND       PRES   REMARKS
KANSAS CTY INT MOSUNNY   48  32  53 SW12      30.23F
KANSAS C DTWN  SUNNY     49  29  46 W12       30.24F
LEE`S SUMMIT   SUNNY     48  30  49 SW9       30.23F
ST JOSEPH      SUNNY     46  30  53 SW10      30.23F
CHILLICOTHE      N/A     47  32  56 SW9       30.23F
KIRKSVILLE     SUNNY     47  27  45 SW12      30.19F

$$
MOZ066>068-077>081-088>096-101>105-062100-
...SOUTHWEST MISSOURI...

CITY           SKY/WX    TMP DP  RH WIND       PRES   REMARKS
SPRINGFIELD    PTSUNNY   53  27  36 SW15      30.24F
JOPLIN         SUNNY     52  30  43 SW14      30.27F

$$
MOZ032>034-039>042-045>050-055>058-069>072-062100-
...CENTRAL MISSOURI...

CITY           SKY/WX    TMP DP  RH WIND       PRES   REMARKS
COLUMBIA       SUNNY     54  28  36 SW15G22   30.21F
JEFFERSON CITY SUNNY     54  28  36 W15       30.22F
ROLLA          MOSUNNY   54  28  36 SW18      30.20F
SEDALIA        SUNNY     51  27  39 W14       30.24F
WHITEMAN AFB   SUNNY     50  27  40 W9        30.22F
WARRENSBURG    SUNNY     48  30  49 SW9G16    30.24F
OSAGE BEACH    MOSUNNY   54  28  37 SW12G17   30.23F

$$
MOZ051-052-059>065-062100-
...EAST CENTRAL MISSOURI...

CITY           SKY/WX    TMP DP  RH WIND       PRES   REMARKS
ST LOUIS INTL  MOSUNNY   57  29  34 W12       30.22F
SPIRIT OF STL  MOSUNNY   55  30  38 SW13      30.21F
ST CHARLES     SUNNY     54  29  38 W9G22     30.21F

$$
MOZ072>076-082>087-097>100-106>115-062100-
...SOUTH CENTRAL AND SOUTHEAST MISSOURI...

CITY           SKY/WX    TMP DP  RH WIND       PRES   REMARKS
CAPE GIRARDEAU SUNNY     55  20  25 W12       30.27F
FARMINGTON     SUNNY     55  23  28 W9G16     30.23F
POPLAR BLUFF   SUNNY     55  20  25 S13       30.28F
WEST PLAINS    SUNNY     52  17  25 S7        30.27F

$$



USA.gov is the U.S. government's official web portal to all federal, state and local government web resources and services.